CW1248 Weather Reports


Display with metric or nautical units.
time (UTC)temp
F
wind
direction
speed
MPH
gust
MPH
rain 1hr
in
rain 24hr
in
rain mn
in
humidity
%
barometer
mb
20210917073001 73 178 6.0 14.0 0.00 0.00 0.00 76 1008.0
20210917071644 73 210 6.0 19.0 0.00 0.00 0.00 76 1007.9
20210917070132 73 238 6.0 14.0 0.00 0.00 0.00 75 1007.5
20210917064637 74 166 7.0 18.0 0.00 0.00 0.00 75 1007.4
20210917063157 74 224 6.0 18.0 0.00 0.00 0.00 74 1007.2
20210917061612 74 173 10.0 20.0 0.00 0.00 0.00 73 1006.8
20210917060059 74 220 11.0 20.0 0.00 0.00 0.00 74 1006.5
20210917054616 75 181 10.0 26.0 0.00 0.00 0.00 73 1006.4
20210917053106 75 235 11.0 25.0 0.00 0.00 0.00 73 1006.4
20210917051611 75 185 10.0 21.0 0.00 0.00 0.00 73 1006.2
20210917050136 75 202 11.0 25.0 0.00 0.00 0.00 73 1006.0
20210917044559 75 230 11.0 20.0 0.00 0.00 0.00 72 1006.1
20210917043103 77 224 11.0 22.0 0.00 0.00 0.00 69 1006.1
20210917041618 77 230 10.0 24.0 0.00 0.00 0.00 68 1006.3
20210917040104 77 212 10.0 28.0 0.00 0.00 0.00 67 1006.5
20210917034557 77 185 11.0 28.0 0.00 0.00 0.00 67 1006.6
20210917033104 78 192 9.0 22.0 0.00 0.00 0.00 66 1006.6
20210917031602 78 180 12.0 24.0 0.00 0.00 0.00 65 1006.7
20210917030104 78 195 13.0 24.0 0.00 0.00 0.00 64 1006.7
20210917024611 79 183 14.0 26.0 0.00 0.00 0.00 63 1006.6
20210917023127 79 143 9.0 21.0 0.00 0.00 0.00 62 1006.7
20210917021618 79 221 10.0 22.0 0.00 0.00 0.00 61 1006.4
20210917020109 80 171 8.0 20.0 0.00 0.00 0.00 61 1006.3
20210917014558 80 227 12.0 20.0 0.00 0.00 0.00 60 1006.0
20210917013124 80 161 12.0 23.0 0.00 0.00 0.00 60 1005.8
20210917011550 80 219 7.0 22.0 0.00 0.00 0.00 59 1005.7
20210917010035 81 233 9.0 22.0 0.00 0.00 0.00 58 1005.1
20210917004545 81 230 15.0 26.0 0.00 0.00 0.00 58 1004.7
20210917003047 81 191 10.0 20.0 0.00 0.00 0.00 57 1004.3
20210917001547 82 190 13.0 27.0 0.00 0.00 0.00 57 1003.6
20210917000041 82 171 13.0 28.0 0.00 0.00 0.00 56 1003.7
20210916234600 83 223 12.0 23.0 0.00 0.00 0.00 55 1004.0
20210916233044 84 157 13.0 34.0 0.00 0.00 0.00 54 1004.1
20210916231535 85 171 11.0 28.0 0.00 0.00 0.00 54 1004.1
20210916230022 85 133 16.0 28.0 0.00 0.00 0.00 53 1004.1
20210916224537 85 172 11.0 27.0 0.00 0.00 0.00 53 1004.2
20210916223058 86 200 14.0 25.0 0.00 0.00 0.00 52 1004.3
20210916221555 86 175 13.0 25.0 0.00 0.00 0.00 52 1004.4
20210916220047 86 175 16.0 30.0 0.00 0.00 0.00 50 1004.6
20210916214522 86 203 13.0 26.0 0.00 0.00 0.00 51 1004.5
20210916213047 86 171 13.0 30.0 0.00 0.00 0.00 52 1004.6
20210916211532 86 198 9.0 25.0 0.00 0.00 0.00 52 1004.7
20210916210047 86 238 13.0 26.0 0.00 0.00 0.00 51 1004.6
20210916204602 86 221 13.0 27.0 0.00 0.00 0.00 53 1004.9
20210916203023 86 255 14.0 34.0 0.00 0.00 0.00 52 1005.0
20210916201529 86 168 10.0 28.0 0.00 0.00 0.00 54 1005.0
20210916200004 85 159 14.0 26.0 0.00 0.00 0.00 54 1005.1
20210916194502 85 171 13.0 30.0 0.00 0.00 0.00 54 1005.3
20210916193151 85 174 7.0 23.0 0.00 0.00 0.00 56 1005.6
20210916191655 84 181 16.0 31.0 0.00 0.00 0.00 55 1005.8
20210916190114 84 171 15.0 26.0 0.00 0.00 0.00 57 1006.0
20210916184616 83 223 10.0 25.0 0.00 0.00 0.00 58 1006.2
20210916183136 83 164 14.0 29.0 0.00 0.00 0.00 58 1006.3
20210916181643 82 159 7.0 25.0 0.00 0.00 0.00 59 1006.5
20210916180113 82 199 13.0 26.0 0.00 0.00 0.00 58 1006.7
20210916174550 81 175 17.0 32.0 0.00 0.00 0.00 58 1007.0
20210916173124 81 171 7.0 21.0 0.00 0.00 0.00 60 1007.2
20210916171613 80 164 6.0 23.0 0.00 0.00 0.00 62 1007.4
20210916170040 78 264 13.0 24.0 0.00 0.00 0.00 62 1007.6
20210916164601 78 161 11.0 21.0 0.00 0.00 0.00 62 1007.9
20210916163057 76 238 13.0 23.0 0.00 0.00 0.00 63 1008.0
20210916161537 75 178 10.0 21.0 0.00 0.00 0.00 65 1008.0
20210916160023 75 205 15.0 27.0 0.00 0.00 0.00 65 1008.0
20210916154517 74 211 13.0 27.0 0.00 0.00 0.00 66 1008.1
20210916153012 72 152 11.0 25.0 0.00 0.00 0.00 68 1008.3
20210916151520 71 174 14.0 24.0 0.00 0.00 0.00 67 1008.5
20210916150004 71 234 12.0 31.0 0.00 0.00 0.00 67 1008.8
20210916144503 70 158 9.0 27.0 0.00 0.00 0.00 67 1008.7
20210916143136 70 197 10.0 23.0 0.00 0.00 0.00 67 1008.9
20210916141625 69 148 11.0 25.0 0.00 0.00 0.00 68 1009.1
20210916140143 69 174 11.0 24.0 0.00 0.00 0.00 68 1009.4
20210916134630 68 184 11.0 24.0 0.00 0.00 0.00 69 1009.4
20210916133129 68 207 13.0 26.0 0.00 0.00 0.00 69 1009.4
20210916131618 68 175 12.0 23.0 0.00 0.00 0.00 69 1009.6
20210916130142 67 184 11.0 24.0 0.00 0.00 0.00 68 1009.7
20210916124608 67 170 8.0 18.0 0.00 0.00 0.00 69 1009.9
20210916123135 67 188 9.0 21.0 0.00 0.00 0.00 68 1009.9
20210916121614 67 226 10.0 19.0 0.00 0.00 0.00 68 1010.0
20210916120155 67 222 6.0 19.0 0.00 0.00 0.00 69 1010.0
20210916114625 66 223 8.0 16.0 0.00 0.00 0.00 69 1010.0
20210916113048 66 181 8.0 17.0 0.00 0.00 0.00 68 1009.9
20210916111632 66 218 9.0 20.0 0.00 0.00 0.00 69 1009.9
20210916110138 66 236 10.0 21.0 0.00 0.00 0.00 69 1009.9
20210916104558 66 213 7.0 22.0 0.00 0.00 0.00 70 1009.9
20210916103037 66 202 10.0 20.0 0.00 0.00 0.00 71 1010.0
20210916101552 66 175 8.0 16.0 0.00 0.00 0.00 72 1010.1
20210916100103 67 209 6.0 16.0 0.00 0.00 0.00 69 1010.1
20210916094605 67 216 9.0 18.0 0.00 0.00 0.00 68 1010.1
20210916093044 67 213 7.0 19.0 0.00 0.00 0.00 67 1010.4
20210916091548 67 233 8.0 16.0 0.00 0.00 0.00 67 1010.4
20210916090033 67 213 11.0 17.0 0.00 0.00 0.00 67 1010.5
20210916084548 67 229 8.0 16.0 0.00 0.00 0.00 67 1010.4
20210916083033 67 157 9.0 16.0 0.00 0.00 0.00 67 1010.5
20210916081545 67 180 9.0 18.0 0.00 0.00 0.00 68 1010.6
20210916080022 67 177 8.0 16.0 0.00 0.00 0.00 68 1010.7
20210916074555 66 173 7.0 16.0 0.00 0.00 0.00 68 1010.9